Location: A�n Tadlesse
(35.0351°N, 0.5353°E)
Time: 20:31:21
(UTC+00:00)

Meteosat 1 Rocket2 - Pass Details

Date: 21 October 2019
Orbit: 485 x 2307 km, 28.3° (Epoch: 16 November)

Event Time Altitude Azimuth Distance (km) Brightness Sun altitude
Rises 17:53:35 0° 247° (WSW) 2,885 8.3 -8.4°
Reaches altitude 10° 17:56:18 10° 236° (SW) 1,817 6.6 -9.0°
Maximum altitude 17:59:44 28° 176° (S) 955 4.1 -9.7°
Enters shadow 18:02:46 11° 116° (ESE) 1,617 4.7 -10.3°
